CSH1017 ZSPD-ZBAD

Flight info

Callsign CSH1017
Flight time 1h 42m
Altitude 40100
Route PIKAS G330 PIMOL A593 DALIM W157 AVBOX
Aircraft B789/H-SDE1E2E3FGHIJ2J3J4J5M1RWXY/LB1D1

Departure

Time 2026-04-16 14:20
Airport Shanghai Pudong International Airport (ZSPD)

Arrival

Time 2026-04-16 16:02
Airport Beijing Daxing International Airport (ZBAD)
Time Latitude Longitude Altitude Speed Heading
2026-04-16 13:46 31.13690 121.80638 27 ft 0 kts 161°
2026-04-16 13:59 31.13695 121.80637 27 ft 2 kts 160°
2026-04-16 14:00 31.13709 121.80630 27 ft 2 kts 160°
2026-04-16 14:00 31.13722 121.80625 27 ft 2 kts 171°
2026-04-16 14:00 31.13738 121.80624 27 ft 2 kts 188°
2026-04-16 14:00 31.13753 121.80629 27 ft 2 kts 202°
2026-04-16 14:01 31.13767 121.80637 27 ft 2 kts 217°
2026-04-16 14:01 31.13779 121.80650 27 ft 2 kts 233°
2026-04-16 14:01 31.13788 121.80666 27 ft 2 kts 248°
2026-04-16 14:01 31.13790 121.80675 27 ft 1 kts 255°
2026-04-16 14:02 31.13791 121.80676 27 ft 0 kts 255°
2026-04-16 14:05 31.13790 121.80674 27 ft 1 kts 255°
2026-04-16 14:05 31.13780 121.80630 27 ft 9 kts 255°
2026-04-16 14:06 31.13761 121.80550 27 ft 10 kts 256°
2026-04-16 14:06 31.13772 121.80479 27 ft 9 kts 301°
2026-04-16 14:06 31.13815 121.80431 27 ft 8 kts 326°
2026-04-16 14:06 31.13862 121.80414 27 ft 8 kts 345°
2026-04-16 14:07 31.13929 121.80393 27 ft 12 kts 345°
2026-04-16 14:07 31.14017 121.80360 27 ft 14 kts 343°
2026-04-16 14:07 31.14066 121.80341 27 ft 6 kts 338°
2026-04-16 14:07 31.14117 121.80319 27 ft 10 kts 345°
2026-04-16 14:08 31.14176 121.80254 27 ft 15 kts 282°
2026-04-16 14:08 31.14148 121.80118 27 ft 20 kts 250°
2026-04-16 14:08 31.14099 121.79953 27 ft 21 kts 255°
2026-04-16 14:08 31.14057 121.79792 27 ft 20 kts 257°
2026-04-16 14:09 31.14091 121.79666 27 ft 17 kts 355°
2026-04-16 14:09 31.14211 121.79648 27 ft 17 kts 346°
2026-04-16 14:09 31.14320 121.79606 27 ft 16 kts 342°
2026-04-16 14:09 31.14425 121.79565 27 ft 15 kts 342°
2026-04-16 14:10 31.14526 121.79527 27 ft 15 kts 342°
2026-04-16 14:10 31.14624 121.79491 27 ft 14 kts 342°
2026-04-16 14:10 31.14717 121.79457 27 ft 14 kts 343°
2026-04-16 14:10 31.14807 121.79425 27 ft 13 kts 343°
2026-04-16 14:11 31.14893 121.79394 27 ft 12 kts 343°
2026-04-16 14:11 31.14974 121.79366 27 ft 12 kts 341°
2026-04-16 14:11 31.15060 121.79325 27 ft 16 kts 338°
2026-04-16 14:11 31.15190 121.79279 27 ft 23 kts 344°
2026-04-16 14:12 31.15365 121.79208 27 ft 29 kts 338°
2026-04-16 14:12 31.15585 121.79128 27 ft 36 kts 342°
2026-04-16 14:12 31.15853 121.79026 27 ft 41 kts 342°
2026-04-16 14:12 31.16025 121.78964 27 ft 19 kts 342°
2026-04-16 14:13 31.16148 121.78915 27 ft 12 kts 331°
2026-04-16 14:13 31.16176 121.78838 27 ft 11 kts 253°
2026-04-16 14:13 31.16157 121.78773 27 ft 5 kts 251°
2026-04-16 14:13 31.16144 121.78727 27 ft 5 kts 251°
2026-04-16 14:14 31.16132 121.78687 27 ft 4 kts 251°
2026-04-16 14:14 31.16122 121.78652 27 ft 4 kts 248°
2026-04-16 14:14 31.16111 121.78631 27 ft 3 kts 226°
2026-04-16 14:14 31.16090 121.78621 27 ft 2 kts 189°
2026-04-16 14:15 31.16073 121.78622 27 ft 1 kts 176°
2026-04-16 14:15 31.16063 121.78625 27 ft 1 kts 167°
2026-04-16 14:15 31.16059 121.78625 27 ft 0 kts 167°
2026-04-16 14:15 31.16056 121.78626 27 ft 0 kts 167°
2026-04-16 14:16 31.16053 121.78627 27 ft 0 kts 167°
2026-04-16 14:16 31.16051 121.78628 27 ft 0 kts 167°
2026-04-16 14:16 31.16048 121.78629 27 ft 0 kts 167°
2026-04-16 14:16 31.16045 121.78629 27 ft 0 kts 167°
2026-04-16 14:17 31.16043 121.78630 27 ft 0 kts 167°
2026-04-16 14:17 31.16040 121.78631 27 ft 0 kts 167°
2026-04-16 14:17 31.16038 121.78631 27 ft 0 kts 167°
2026-04-16 14:17 31.16035 121.78632 27 ft 0 kts 167°
2026-04-16 14:18 31.16033 121.78632 27 ft 0 kts 167°
2026-04-16 14:18 31.16030 121.78633 27 ft 0 kts 167°
2026-04-16 14:18 31.16028 121.78634 27 ft 0 kts 167°
2026-04-16 14:18 31.16025 121.78635 27 ft 0 kts 167°
2026-04-16 14:19 31.16023 121.78635 27 ft 0 kts 167°
2026-04-16 14:19 31.16020 121.78636 27 ft 0 kts 167°
2026-04-16 14:19 31.16018 121.78636 27 ft 0 kts 167°
2026-04-16 14:19 31.15761 121.78722 27 ft 85 kts 161°
2026-04-16 14:20 31.14930 121.79072 31 ft 166 kts 160°
2026-04-16 14:20 31.13759 121.79551 731 ft 187 kts 158°
2026-04-16 14:20 31.12531 121.80031 1700 ft 194 kts 164°
2026-04-16 14:20 31.11282 121.80384 2666 ft 177 kts 164°
2026-04-16 14:21 31.10119 121.80738 3190 ft 181 kts 163°
2026-04-16 14:21 31.08901 121.81131 3806 ft 194 kts 163°
2026-04-16 14:21 31.07597 121.81564 4390 ft 198 kts 163°
2026-04-16 14:21 31.06219 121.81787 4920 ft 202 kts 189°
2026-04-16 14:22 31.05016 121.80865 5484 ft 208 kts 234°
2026-04-16 14:22 31.04679 121.79276 6024 ft 215 kts 275°
2026-04-16 14:22 31.05336 121.77711 6590 ft 234 kts 314°
2026-04-16 14:22 31.06802 121.76769 7144 ft 254 kts 342°
2026-04-16 14:23 31.08629 121.76127 7698 ft 280 kts 343°
2026-04-16 14:23 31.10418 121.75515 8261 ft 288 kts 344°
2026-04-16 14:23 31.12212 121.74849 8805 ft 290 kts 338°
2026-04-16 14:24 31.15643 121.72617 9936 ft 294 kts 325°
2026-04-16 14:24 31.17305 121.71213 10515 ft 297 kts 322°
2026-04-16 14:24 31.18948 121.69724 11096 ft 299 kts 321°
2026-04-16 14:24 31.20618 121.68156 11690 ft 301 kts 320°
2026-04-16 14:25 31.22262 121.66583 12273 ft 304 kts 320°
2026-04-16 14:25 31.23913 121.64989 12855 ft 307 kts 320°
2026-04-16 14:25 31.25553 121.63398 13427 ft 310 kts 319°
2026-04-16 14:25 31.27297 121.61700 14030 ft 314 kts 319°
2026-04-16 14:26 31.29002 121.60036 14614 ft 317 kts 319°
2026-04-16 14:26 31.30770 121.58310 15213 ft 321 kts 319°
2026-04-16 14:26 31.32458 121.56661 15779 ft 324 kts 319°
2026-04-16 14:26 31.34131 121.55026 16335 ft 327 kts 319°
2026-04-16 14:27 31.35890 121.53304 16913 ft 330 kts 319°
2026-04-16 14:27 31.37649 121.51582 17487 ft 333 kts 318°
2026-04-16 14:27 31.39448 121.49821 18068 ft 336 kts 318°
2026-04-16 14:27 31.41256 121.48049 18646 ft 339 kts 318°
2026-04-16 14:28 31.43066 121.46275 19220 ft 342 kts 318°
2026-04-16 14:28 31.44881 121.44493 19671 ft 347 kts 318°
2026-04-16 14:28 31.46740 121.42667 19681 ft 348 kts 318°
2026-04-16 14:28 31.48616 121.40825 19694 ft 346 kts 318°
2026-04-16 14:29 31.50457 121.39011 19696 ft 345 kts 317°
2026-04-16 14:29 31.52294 121.37195 19697 ft 345 kts 317°
2026-04-16 14:29 31.54124 121.35386 19697 ft 345 kts 317°
2026-04-16 14:29 31.55977 121.33556 19698 ft 345 kts 317°
2026-04-16 14:30 31.57854 121.31700 19723 ft 364 kts 317°
2026-04-16 14:30 31.59874 121.29702 19730 ft 392 kts 317°
2026-04-16 14:30 31.62008 121.27597 19713 ft 405 kts 318°
2026-04-16 14:30 31.64140 121.25499 19952 ft 405 kts 318°
2026-04-16 14:31 31.66327 121.23345 20231 ft 407 kts 317°
2026-04-16 14:31 31.68481 121.21220 20505 ft 408 kts 317°
2026-04-16 14:31 31.70653 121.19076 20781 ft 410 kts 317°
2026-04-16 14:31 31.72851 121.16902 21060 ft 413 kts 317°
2026-04-16 14:32 31.75055 121.14721 21338 ft 415 kts 317°
2026-04-16 14:32 31.77262 121.12535 21615 ft 417 kts 317°
2026-04-16 14:32 31.79480 121.10338 21892 ft 419 kts 317°
2026-04-16 14:32 31.81747 121.08089 22174 ft 422 kts 317°
2026-04-16 14:33 31.84017 121.05836 22455 ft 424 kts 317°
2026-04-16 14:33 31.86304 121.03566 22737 ft 426 kts 317°
2026-04-16 14:33 31.88588 121.01297 23017 ft 429 kts 317°
2026-04-16 14:33 31.90927 120.98972 23303 ft 431 kts 317°
2026-04-16 14:34 31.93284 120.96626 23590 ft 433 kts 317°
2026-04-16 14:34 31.95618 120.94303 23874 ft 435 kts 317°
2026-04-16 14:34 31.97945 120.91986 24155 ft 436 kts 317°
2026-04-16 14:34 32.00357 120.89583 24446 ft 438 kts 317°
2026-04-16 14:35 32.02694 120.87252 24728 ft 439 kts 317°
2026-04-16 14:35 32.05123 120.84826 25020 ft 441 kts 317°
2026-04-16 14:35 32.07621 120.82330 25320 ft 442 kts 317°
2026-04-16 14:35 32.10122 120.79829 25619 ft 444 kts 317°
2026-04-16 14:36 32.12669 120.77280 25912 ft 445 kts 316°
2026-04-16 14:36 32.14851 120.74509 26173 ft 438 kts 297°
2026-04-16 14:36 32.15975 120.70946 26538 ft 431 kts 280°
2026-04-16 14:36 32.16648 120.67047 26858 ft 432 kts 276°
2026-04-16 14:37 32.17158 120.63281 27152 ft 431 kts 275°
2026-04-16 14:37 32.17589 120.59534 27439 ft 430 kts 274°
2026-04-16 14:37 32.17989 120.55662 27734 ft 428 kts 273°
2026-04-16 14:37 32.18340 120.51965 28015 ft 426 kts 273°
2026-04-16 14:38 32.18692 120.48079 28312 ft 424 kts 272°
2026-04-16 14:38 32.19036 120.44125 28614 ft 423 kts 272°
2026-04-16 14:38 32.19351 120.40424 28897 ft 421 kts 272°
2026-04-16 14:38 32.19672 120.36593 29191 ft 420 kts 272°
2026-04-16 14:39 32.19973 120.32952 29475 ft 417 kts 272°
2026-04-16 14:39 32.20267 120.29361 29759 ft 416 kts 272°
2026-04-16 14:39 32.20560 120.25803 30042 ft 414 kts 272°
2026-04-16 14:39 32.20860 120.22150 30333 ft 413 kts 272°
2026-04-16 14:40 32.21148 120.18625 30615 ft 411 kts 272°
2026-04-16 14:40 32.21426 120.15199 30890 ft 410 kts 272°
2026-04-16 14:40 32.21718 120.11591 31180 ft 408 kts 272°
2026-04-16 14:40 32.22004 120.08062 31465 ft 406 kts 272°
2026-04-16 14:41 32.22293 120.04447 31757 ft 405 kts 272°
2026-04-16 14:41 32.22574 120.00939 32034 ft 403 kts 272°
2026-04-16 14:41 32.23146 119.93774 32089 ft 403 kts 272°
2026-04-16 14:42 32.23742 119.86230 32109 ft 423 kts 272°
2026-04-16 14:42 32.24041 119.82437 32108 ft 438 kts 273°
2026-04-16 14:42 32.24775 119.78526 32057 ft 462 kts 290°
2026-04-16 14:43 32.26817 119.74911 32085 ft 487 kts 309°
2026-04-16 14:43 32.29635 119.72083 32119 ft 505 kts 318°
2026-04-16 14:43 32.36029 119.66426 32088 ft 510 kts 320°
2026-04-16 14:44 32.42451 119.60893 32089 ft 509 kts 320°
2026-04-16 14:44 32.48784 119.55441 32089 ft 508 kts 320°
2026-04-16 14:45 32.54985 119.50085 32089 ft 508 kts 320°
2026-04-16 14:45 32.60876 119.44988 32089 ft 509 kts 320°
2026-04-16 14:46 32.66872 119.39792 32089 ft 508 kts 320°
2026-04-16 14:46 32.72641 119.34784 32089 ft 509 kts 320°
2026-04-16 14:47 32.78641 119.29567 32095 ft 509 kts 320°
2026-04-16 14:47 32.84466 119.24495 32095 ft 509 kts 320°
2026-04-16 14:48 32.90297 119.19409 32095 ft 508 kts 319°
2026-04-16 14:48 32.96119 119.14356 32095 ft 509 kts 320°
2026-04-16 14:49 33.01871 119.09409 32098 ft 504 kts 319°
2026-04-16 14:49 33.07552 119.04514 32091 ft 499 kts 319°
2026-04-16 14:50 33.13144 118.99685 32093 ft 494 kts 318°
2026-04-16 14:50 33.18684 118.94880 32092 ft 494 kts 318°
2026-04-16 14:51 33.24215 118.90053 32093 ft 492 kts 318°
2026-04-16 14:51 33.29746 118.85224 32087 ft 495 kts 318°
2026-04-16 14:53 33.52011 118.65924 32091 ft 496 kts 319°
2026-04-16 14:54 33.57600 118.61072 32088 ft 496 kts 319°
2026-04-16 14:54 33.63179 118.56224 32086 ft 497 kts 319°
2026-04-16 14:55 33.68758 118.51368 32089 ft 496 kts 319°
2026-04-16 14:55 33.74331 118.46506 32082 ft 494 kts 319°
2026-04-16 14:56 33.79900 118.41644 32089 ft 497 kts 319°
2026-04-16 14:56 33.85466 118.36778 32091 ft 495 kts 319°
2026-04-16 14:57 33.91036 118.31897 32092 ft 494 kts 318°
2026-04-16 14:57 33.96585 118.27030 32097 ft 495 kts 318°
2026-04-16 14:58 34.05001 118.19698 32093 ft 497 kts 319°
2026-04-16 14:59 34.10568 118.14850 32088 ft 495 kts 318°
2026-04-16 14:59 34.16133 118.10000 32090 ft 495 kts 318°
2026-04-16 15:00 34.21732 118.05115 32088 ft 496 kts 318°
2026-04-16 15:00 34.27419 118.00494 32029 ft 505 kts 330°
2026-04-16 15:01 34.34133 117.97696 32090 ft 513 kts 336°
2026-04-16 15:01 34.40927 117.95171 32092 ft 513 kts 337°
2026-04-16 15:02 34.47763 117.92696 32091 ft 513 kts 338°
2026-04-16 15:02 34.54603 117.90236 32089 ft 512 kts 338°
2026-04-16 15:03 34.61408 117.87791 32094 ft 512 kts 338°
2026-04-16 15:03 34.68256 117.85329 32098 ft 511 kts 338°
2026-04-16 15:04 34.75066 117.82877 32096 ft 512 kts 338°
2026-04-16 15:04 34.81855 117.80426 32116 ft 512 kts 337°
2026-04-16 15:05 34.88653 117.77942 32131 ft 512 kts 337°
2026-04-16 15:05 34.95462 117.75465 32139 ft 509 kts 336°
2026-04-16 15:06 35.02213 117.72998 32139 ft 503 kts 336°
2026-04-16 15:06 35.08854 117.70560 32146 ft 499 kts 335°
2026-04-16 15:06 35.12166 117.69346 32125 ft 484 kts 335°
2026-04-16 15:07 35.15296 117.68206 32116 ft 461 kts 335°
2026-04-16 15:07 35.18288 117.67112 32118 ft 446 kts 335°
2026-04-16 15:07 35.21268 117.66004 32146 ft 452 kts 334°
2026-04-16 15:08 35.27329 117.63760 32139 ft 454 kts 335°
2026-04-16 15:08 35.33335 117.61544 32144 ft 455 kts 335°
2026-04-16 15:09 35.39390 117.59312 32147 ft 452 kts 335°
2026-04-16 15:09 35.45430 117.57077 32140 ft 452 kts 335°
2026-04-16 15:10 35.51473 117.54839 32142 ft 454 kts 335°
2026-04-16 15:10 35.57498 117.52602 32140 ft 453 kts 335°
2026-04-16 15:11 35.63514 117.50372 32132 ft 453 kts 335°
2026-04-16 15:11 35.69586 117.48109 32101 ft 454 kts 335°
2026-04-16 15:12 35.75588 117.45876 32102 ft 455 kts 335°
2026-04-16 15:12 35.81638 117.43617 32101 ft 457 kts 335°
2026-04-16 15:13 35.87696 117.41357 32098 ft 453 kts 335°
2026-04-16 15:13 35.93725 117.39094 32102 ft 455 kts 335°
2026-04-16 15:14 35.99796 117.36826 32098 ft 457 kts 335°
2026-04-16 15:14 36.05843 117.34592 32108 ft 454 kts 334°
2026-04-16 15:15 36.11900 117.32352 32111 ft 455 kts 334°
2026-04-16 15:15 36.17934 117.30116 32115 ft 454 kts 334°
2026-04-16 15:16 36.23999 117.27867 32112 ft 453 kts 335°
2026-04-16 15:16 36.30042 117.25622 32113 ft 455 kts 335°
2026-04-16 15:17 36.36057 117.23388 32108 ft 454 kts 334°
2026-04-16 15:17 36.42064 117.20996 32116 ft 450 kts 329°
2026-04-16 15:18 36.47858 117.18053 32111 ft 450 kts 329°
2026-04-16 15:18 36.53616 117.15087 32110 ft 448 kts 329°
2026-04-16 15:19 36.59333 117.12119 32109 ft 447 kts 329°
2026-04-16 15:19 36.65080 117.09127 32110 ft 448 kts 329°
2026-04-16 15:20 36.70811 117.06135 32099 ft 448 kts 329°
2026-04-16 15:20 36.76542 117.03136 32065 ft 443 kts 329°
2026-04-16 15:21 36.82207 117.00169 32022 ft 443 kts 329°
2026-04-16 15:21 36.87888 116.97188 31975 ft 441 kts 329°
2026-04-16 15:22 36.93554 116.94208 31943 ft 440 kts 329°
2026-04-16 15:22 36.99166 116.91258 31931 ft 438 kts 329°
2026-04-16 15:23 37.04776 116.88311 31931 ft 434 kts 328°
2026-04-16 15:23 37.10327 116.85384 31932 ft 432 kts 327°
2026-04-16 15:24 37.15802 116.82484 31928 ft 429 kts 327°
2026-04-16 15:24 37.21337 116.79608 31917 ft 437 kts 330°
2026-04-16 15:25 37.27155 116.77336 31926 ft 437 kts 333°
2026-04-16 15:25 37.32993 116.75106 31929 ft 440 kts 333°
2026-04-16 15:26 37.38855 116.72880 31922 ft 440 kts 333°
2026-04-16 15:26 37.44714 116.70657 31924 ft 439 kts 333°
2026-04-16 15:27 37.50565 116.68436 31925 ft 439 kts 333°
2026-04-16 15:27 37.56397 116.66217 31729 ft 441 kts 333°
2026-04-16 15:27 37.59310 116.65103 31252 ft 438 kts 333°
2026-04-16 15:28 37.62225 116.63992 30789 ft 436 kts 333°
2026-04-16 15:28 37.65139 116.62882 30329 ft 437 kts 334°
2026-04-16 15:28 37.68037 116.61774 29879 ft 437 kts 334°
2026-04-16 15:28 37.70938 116.60664 29383 ft 437 kts 334°
2026-04-16 15:29 37.73838 116.59556 28874 ft 437 kts 335°
2026-04-16 15:29 37.76734 116.58448 28371 ft 436 kts 335°
2026-04-16 15:29 37.79657 116.57327 27858 ft 439 kts 335°
2026-04-16 15:29 37.82590 116.56205 27348 ft 438 kts 336°
2026-04-16 15:30 37.85564 116.55067 26828 ft 439 kts 336°
2026-04-16 15:30 37.88467 116.53954 26318 ft 437 kts 336°
2026-04-16 15:30 37.91394 116.52832 25795 ft 434 kts 336°
2026-04-16 15:30 37.94318 116.51711 25269 ft 431 kts 337°
2026-04-16 15:31 37.97060 116.50295 24726 ft 417 kts 324°
2026-04-16 15:31 37.99475 116.48259 24241 ft 413 kts 322°
2026-04-16 15:31 38.01654 116.46396 23766 ft 410 kts 321°
2026-04-16 15:31 38.03989 116.44335 23248 ft 408 kts 321°
2026-04-16 15:32 38.06305 116.42265 22729 ft 405 kts 321°
2026-04-16 15:32 38.08625 116.40173 22205 ft 403 kts 321°
2026-04-16 15:32 38.10912 116.38098 21687 ft 400 kts 322°
2026-04-16 15:32 38.13176 116.36034 21177 ft 398 kts 322°
2026-04-16 15:33 38.15413 116.33989 20675 ft 396 kts 321°
2026-04-16 15:33 38.17356 116.32209 20243 ft 395 kts 321°
2026-04-16 15:33 38.19609 116.30140 19738 ft 393 kts 322°
2026-04-16 15:33 38.21869 116.28062 19229 ft 391 kts 322°
2026-04-16 15:34 38.24204 116.26265 18678 ft 393 kts 335°
2026-04-16 15:34 38.26915 116.25694 18142 ft 399 kts 358°
2026-04-16 15:34 38.29688 116.26213 17653 ft 401 kts
2026-04-16 15:34 38.32401 116.26937 17154 ft 399 kts
2026-04-16 15:35 38.35091 116.27741 16654 ft 397 kts 10°
2026-04-16 15:35 38.37760 116.28577 16153 ft 394 kts 11°
2026-04-16 15:35 38.40428 116.29440 15648 ft 392 kts 11°
2026-04-16 15:35 38.43055 116.30309 15147 ft 390 kts 12°
2026-04-16 15:36 38.45688 116.31191 14642 ft 387 kts 12°
2026-04-16 15:36 38.48277 116.32068 14142 ft 385 kts 12°
2026-04-16 15:36 38.50841 116.32941 13643 ft 383 kts 13°
2026-04-16 15:36 38.53400 116.33817 13143 ft 381 kts 13°
2026-04-16 15:37 38.55986 116.34705 12629 ft 375 kts 13°
2026-04-16 15:37 38.58456 116.35556 12119 ft 365 kts 14°
2026-04-16 15:37 38.60893 116.36397 11604 ft 357 kts 14°
2026-04-16 15:37 38.63291 116.37242 11085 ft 349 kts 17°
2026-04-16 15:38 38.65420 116.38661 10551 ft 343 kts 32°
2026-04-16 15:38 38.67399 116.40334 10046 ft 336 kts 32°
2026-04-16 15:38 38.69333 116.42010 9534 ft 330 kts 33°
2026-04-16 15:38 38.71226 116.43671 9022 ft 325 kts 33°
2026-04-16 15:39 38.73063 116.45298 8517 ft 320 kts 33°
2026-04-16 15:39 38.74881 116.46918 8010 ft 316 kts 34°
2026-04-16 15:39 38.76673 116.48523 7502 ft 312 kts 34°
2026-04-16 15:39 38.78432 116.50103 6998 ft 308 kts 34°
2026-04-16 15:40 38.80202 116.51698 6485 ft 305 kts 34°
2026-04-16 15:40 38.81937 116.53264 5976 ft 302 kts 34°
2026-04-16 15:40 38.83695 116.54854 5456 ft 299 kts 34°
2026-04-16 15:40 38.85446 116.56440 4933 ft 296 kts 34°
2026-04-16 15:41 38.87146 116.57982 4422 ft 294 kts 35°
2026-04-16 15:41 38.88835 116.59517 4019 ft 287 kts 35°
2026-04-16 15:41 38.90466 116.60998 3979 ft 268 kts 35°
2026-04-16 15:41 38.91985 116.62378 3983 ft 260 kts 34°
2026-04-16 15:42 38.93567 116.63814 3990 ft 259 kts 34°
2026-04-16 15:42 38.95080 116.65190 3986 ft 261 kts 36°
2026-04-16 15:42 38.96614 116.66582 3998 ft 267 kts 36°
2026-04-16 15:42 38.98144 116.67976 3991 ft 267 kts 36°
2026-04-16 15:43 38.99670 116.69368 3993 ft 267 kts 36°
2026-04-16 15:43 39.01207 116.70772 3993 ft 267 kts 36°
2026-04-16 15:43 39.02776 116.72111 3991 ft 268 kts 25°
2026-04-16 15:43 39.04618 116.72446 4027 ft 269 kts 357°
2026-04-16 15:44 39.06519 116.72283 3994 ft 269 kts 356°
2026-04-16 15:44 39.08390 116.72094 3994 ft 269 kts 355°
2026-04-16 15:44 39.10278 116.71912 3993 ft 269 kts 356°
2026-04-16 15:44 39.12151 116.71718 3992 ft 269 kts 355°
2026-04-16 15:45 39.13992 116.71492 3992 ft 269 kts 354°
2026-04-16 15:45 39.15903 116.71233 3992 ft 269 kts 354°
2026-04-16 15:45 39.17777 116.70967 3992 ft 269 kts 354°
2026-04-16 15:45 39.19638 116.70694 3992 ft 269 kts 353°
2026-04-16 15:46 39.21586 116.70404 4021 ft 296 kts 353°
2026-04-16 15:46 39.23758 116.70081 4004 ft 311 kts 353°
2026-04-16 15:46 39.25819 116.69773 3975 ft 291 kts 353°
2026-04-16 15:46 39.27708 116.69487 3970 ft 272 kts 353°
2026-04-16 15:47 39.29259 116.69250 3970 ft 257 kts 353°
2026-04-16 15:47 39.31080 116.68617 3960 ft 237 kts 323°
2026-04-16 15:47 39.31958 116.67014 4005 ft 218 kts 285°
2026-04-16 15:47 39.32182 116.65519 4008 ft 214 kts 275°
2026-04-16 15:48 39.32306 116.61730 3994 ft 213 kts 268°
2026-04-16 15:48 39.32206 116.59791 3984 ft 213 kts 253°
2026-04-16 15:48 39.30893 116.58071 4023 ft 207 kts 192°
2026-04-16 15:49 39.29940 116.57959 4033 ft 207 kts 178°
2026-04-16 15:49 39.28486 116.58048 3995 ft 206 kts 176°
2026-04-16 15:49 39.27047 116.58179 3994 ft 206 kts 175°
2026-04-16 15:49 39.25596 116.58340 3993 ft 206 kts 174°
2026-04-16 15:50 39.24164 116.58517 3992 ft 206 kts 174°
2026-04-16 15:50 39.22726 116.58709 3992 ft 206 kts 173°
2026-04-16 15:50 39.20799 116.58982 3990 ft 204 kts 173°
2026-04-16 15:50 39.19837 116.59122 4000 ft 205 kts 173°
2026-04-16 15:51 39.18421 116.59332 4009 ft 204 kts 173°
2026-04-16 15:51 39.16507 116.59617 3994 ft 205 kts 173°
2026-04-16 15:51 39.15540 116.59762 3992 ft 205 kts 173°
2026-04-16 15:51 39.14111 116.59933 3983 ft 205 kts 183°
2026-04-16 15:52 39.12826 116.59168 4001 ft 208 kts 227°
2026-04-16 15:52 39.12266 116.57767 4009 ft 212 kts 253°
2026-04-16 15:52 39.12041 116.56509 4003 ft 212 kts 256°
2026-04-16 15:52 39.11766 116.54645 3995 ft 212 kts 258°
2026-04-16 15:53 39.11523 116.52753 3992 ft 212 kts 259°
2026-04-16 15:53 39.11430 116.50900 3952 ft 203 kts 282°
2026-04-16 15:53 39.12167 116.49464 3974 ft 186 kts 327°
2026-04-16 15:53 39.13306 116.48838 3972 ft 168 kts 343°
2026-04-16 15:54 39.14405 116.48452 3953 ft 157 kts 347°
2026-04-16 15:54 39.15461 116.48144 3988 ft 155 kts 349°
2026-04-16 15:54 39.16546 116.47874 3992 ft 156 kts 350°
2026-04-16 15:54 39.17619 116.47641 3996 ft 156 kts 352°
2026-04-16 15:55 39.18708 116.47482 4027 ft 154 kts 355°
2026-04-16 15:55 39.19791 116.47336 4065 ft 153 kts 354°
2026-04-16 15:55 39.20863 116.47187 4004 ft 153 kts 354°
2026-04-16 15:55 39.21920 116.47037 4003 ft 153 kts 354°
2026-04-16 15:56 39.22991 116.46883 3993 ft 153 kts 354°
2026-04-16 15:56 39.24175 116.46711 3993 ft 153 kts 354°
2026-04-16 15:56 39.24883 116.46607 3993 ft 153 kts 354°
2026-04-16 15:56 39.25954 116.46448 3993 ft 153 kts 354°
2026-04-16 15:57 39.27022 116.46289 3992 ft 153 kts 354°
2026-04-16 15:57 39.28087 116.46129 3820 ft 154 kts 354°
2026-04-16 15:57 39.29162 116.45966 3629 ft 153 kts 354°
2026-04-16 15:57 39.30217 116.45805 3437 ft 152 kts 354°
2026-04-16 15:58 39.31609 116.45589 3177 ft 151 kts 354°
2026-04-16 15:58 39.32305 116.45476 3044 ft 150 kts 354°
2026-04-16 15:58 39.33351 116.45315 2843 ft 150 kts 354°
2026-04-16 15:58 39.34732 116.45094 2574 ft 149 kts 354°
2026-04-16 15:59 39.36441 116.44824 2238 ft 148 kts 354°
2026-04-16 15:59 39.37474 116.44663 2033 ft 147 kts 354°
2026-04-16 15:59 39.38494 116.44500 1831 ft 146 kts 354°
2026-04-16 16:00 39.39495 116.44344 1633 ft 146 kts 354°
2026-04-16 16:00 39.40509 116.44183 1432 ft 145 kts 354°
2026-04-16 16:00 39.41508 116.44025 1235 ft 144 kts 354°
2026-04-16 16:00 39.42516 116.43866 1037 ft 144 kts 354°
2026-04-16 16:01 39.43516 116.43707 840 ft 143 kts 354°
2026-04-16 16:01 39.44509 116.43551 646 ft 142 kts 354°
2026-04-16 16:01 39.45491 116.43394 455 ft 142 kts 354°
2026-04-16 16:01 39.46362 116.43258 286 ft 141 kts 354°
2026-04-16 16:02 39.47292 116.43110 117 ft 141 kts 354°
2026-04-16 16:02 39.48469 116.42935 96 ft 110 kts 352°
2026-04-16 16:02 39.49077 116.42832 96 ft 70 kts 352°
2026-04-16 16:02 39.49441 116.42772 96 ft 35 kts 354°
2026-04-16 16:03 39.49667 116.42745 96 ft 37 kts 354°
2026-04-16 16:03 39.49930 116.42702 96 ft 36 kts 354°
2026-04-16 16:03 39.50065 116.42652 96 ft 17 kts 341°
2026-04-16 16:03 39.50135 116.42587 96 ft 11 kts 294°
2026-04-16 16:04 39.50150 116.42491 96 ft 10 kts 254°
2026-04-16 16:04 39.50129 116.42408 96 ft 9 kts 252°
2026-04-16 16:04 39.50118 116.42329 96 ft 8 kts 271°
2026-04-16 16:04 39.50124 116.42255 96 ft 7 kts 288°
2026-04-16 16:05 39.50160 116.42210 96 ft 7 kts 340°
2026-04-16 16:05 39.50207 116.42194 96 ft 6 kts 348°
2026-04-16 16:05 39.50249 116.42182 96 ft 6 kts 348°
2026-04-16 16:05 39.50282 116.42173 96 ft 5 kts 348°
2026-04-16 16:06 39.50338 116.42159 96 ft 9 kts 353°
2026-04-16 16:06 39.50415 116.42153 96 ft 12 kts 358°
2026-04-16 16:06 39.50516 116.42145 96 ft 16 kts 355°
2026-04-16 16:06 39.50594 116.42136 96 ft 8 kts 355°
2026-04-16 16:07 39.50650 116.42130 96 ft 7 kts 355°
2026-04-16 16:07 39.50702 116.42123 96 ft 7 kts 353°
2026-04-16 16:07 39.50750 116.42115 96 ft 6 kts 353°
2026-04-16 16:07 39.50791 116.42097 96 ft 5 kts 326°
2026-04-16 16:08 39.50811 116.42055 96 ft 5 kts 284°
2026-04-16 16:08 39.50811 116.42011 96 ft 4 kts 266°
2026-04-16 16:08 39.50810 116.41971 96 ft 4 kts 275°
2026-04-16 16:08 39.50813 116.41936 96 ft 3 kts 276°
2026-04-16 16:09 39.50806 116.41920 96 ft 1 kts 208°
2026-04-16 16:09 39.50793 116.41917 96 ft 1 kts 185°
2026-04-16 16:09 39.50760 116.41913 96 ft 12 kts 188°
2026-04-16 16:09 39.50733 116.41865 96 ft 2 kts 270°
2026-04-16 16:10 39.50736 116.41841 96 ft 2 kts 282°
2026-04-16 16:10 39.50740 116.41827 96 ft 2 kts 289°
2026-04-16 16:10 39.50744 116.41812 96 ft 1 kts 294°
2026-04-16 16:10 39.50748 116.41801 96 ft 0 kts 295°
2026-04-16 16:11 39.50751 116.41792 96 ft 0 kts 295°
2026-04-16 16:11 39.50753 116.41786 96 ft 0 kts 295°
2026-04-16 16:11 39.50755 116.41783 96 ft 0 kts 295°
2026-04-16 16:11 39.50755 116.41782 96 ft 0 kts 295°
2026-04-16 16:12 39.50755 116.41780 96 ft 0 kts 295°